CZ-3B R/B, 63525

Orbit data source: Space-Track

CZ-3B R/B, 63525 is space debris in HEO originally from a launch on Thu, 10 Apr 2025 UTC launched from the Xichang Space Center, China (XSC). Debris objects in space refer to the collection of defunct objects orbiting the Earth. Examples of debris include non-operational satellites, rocket bodies, and fragments generated from explosions, collisions, or faulty payload assembly.

Loading next visibility...
Identifier
63525, 2025-073B
Orbit
HEO
Country
Flag of CNCN / PRC
Related business
Manufacturer
CALT
Mission
Spacecraft
Bus & Motor
CZ-3A STAGE 3, Unknown motor
Mass
~2,800 kg wet, ~2,800 kg dry
Launch date (UTC)
2025-04-10 (10 months ago)
Launch vehicle
Unknown
Launch site
Xichang Space Center, China (XSC)
Object type
Payload
Rocket body
Debris
Shape & HBR
Cyl + 1 Nozzle, 5.2 m
Radar Cross Section
32.704 m², Large (>1 m²)

Expand to show TLE details & history
Last TLE update: 4 days ago

TLE from 4 days ago
0 CZ-3B R/B
1 63525U 25073B   26034.10435180  .00033461 -24842-6  92743-3 0  9997
2 63525  19.3150 289.8814 6526925 110.2303 327.6679  3.34286337  8543
Epoch: 2026-02-03T02:30Z
TLE epoch observation values (Epoch: 2026-02-03T02:30:15.995Z)
Latitude
0.00002°
Longitude
119.10797°
Altitude
7,623.851 km
Speed
5.986 km/s
True Right ascension
19h 19m 51s
True Declination
0° 00' 00"
Sunlit
Object was in daylight at epoch
Visualization orbit readout
Latitude
Unknown
Longitude
Unknown
Altitude
Unknown
Speed
Unknown
Apparent Right ascension
Unknown
Apparent Declination
Unknown
Sunlit
N/A
Visualization observer readout
Local Sidereal Time
05:43:56
Azimuth
Unknown
Elevation
Unknown
Doppler factor
Unknown
Orbital elements
Apogee altitude
24,855.178 km
Perigee altitude
185.434 km
Semi-major axis
18,898.443 km
Eccentricity
0.65269
Inclination
19.315°
RAAN
289.8814°
Arg. of periapsis
110.2303°
True anomaly
249.74734°
Mean anomaly
327.6679°
Eccentric anomaly
293.32858°
Mean motion
0.83542 °/min
Orbital period
430.92 mins
BSTAR
0.00092743
Loading maneuver chart data...
Computing Atmospheric mass density...
Loading historical data...
Loading historical data...
Loading historical data...
Loading historical data...
Loading historical data...
Loading historical data...
Loading historical data...
Other satellites on launch #73 in the year 2025 (2025-04-10 UTC)

Documentation

Showing up to 5 results
|